Scottsbluff, NE

4:52 PM MDT on October 22, 2019 (GMT -0600)
Heilig

Weather History for KBFF - August, 2019

Change the Weather History Date:

Tuesday, August 13, 2019

  Actual Average Record
Temperature  
Mean Temperature 69 °F -  
Max Temperature 81 °F 86 °F 104 °F (2007)
Min Temperature 57 °F 57 °F 44 °F (1966)
Cooling Degree Days 4    
Growing Degree Days 19 (Base 50)    
Moisture  
Dew Point 60 °F    
Average Humidity 75    
Maximum Humidity 97    
Minimum Humidity 36    
Precipitation  
Precipitation 0.00 in - - ()
Sea Level Pressure  
Sea Level Pressure 30.08 in    
Wind  
Wind Speed 7 mph (East)    
Max Wind Speed 15 mph    
Max Gust Speed -    
Visibility 10 miles    
Events      
Averages and records for this station are not official NWS values.
T = Trace of Precipitation, MM = Missing Value Source: NWS Daily Summary

Daily Weather History Graph

Daily Weather History Graph

Search for Another Location

Airport or City:

Astronomy

Aug. 13, 2019 Rise Set
Actual Time 6:00 AM MDT 7:57 PM MDT
Civil Twilight 5:30 AM MDT 8:27 PM MDT
Nautical Twilight 4:53 AM MDT 9:04 PM MDT
Astronomical Twilight 4:12 AM MDT 9:44 PM MDT
Moon 7:15 PM MDT (8/13) 4:02 AM MDT (8/13)
Length of Visible Light 14h 57m
Length of Day
13h 57m
Waxing Gibbous, 97% of the Moon is Illuminated
Aug 13
Waxing Gibbous
Aug 15
Full
Aug 23
Last Quarter
Aug 30
New
Sep 5
First Quarter

Hourly Weather History & Observations

Time (MDT) Temp. Heat Index Dew Point Humidity Pressure Visibility Wind Dir Wind Speed Gust Speed Precip Events Conditions
12:53 AM 64.0 °F - 60.1 °F 87% 29.99 in 10.0 mi East 6.9 mph - N/A   Clear
1:53 AM 64.0 °F - 60.1 °F 87% 29.98 in 10.0 mi East 6.9 mph - N/A   Clear
2:53 AM 62.1 °F - 59.0 °F 90% 29.98 in 10.0 mi ENE 5.8 mph - N/A   Clear
3:53 AM 62.1 °F - 60.1 °F 93% 29.99 in 10.0 mi East 5.8 mph - N/A   Clear
4:53 AM 61.0 °F - 60.1 °F 97% 29.99 in 10.0 mi ESE 8.1 mph - N/A   Clear
5:53 AM 57.9 °F - 57.0 °F 97% 30.01 in 10.0 mi West 3.5 mph - N/A   Clear
6:53 AM 61.0 °F - 60.1 °F 97% 30.03 in 9.0 mi NNE 4.6 mph - N/A   Clear
7:51 AM 66.2 °F - 62.6 °F 88% 30.16 in 10.0 mi Calm Calm - N/A   Scattered Clouds
7:53 AM 66.0 °F - 62.1 °F 87% 30.05 in 10.0 mi Calm Calm - N/A   Scattered Clouds
8:00 AM 64.9 °F - 62.1 °F 90% 30.16 in 10.0 mi Calm Calm - N/A   Mostly Cloudy
8:53 AM 64.0 °F - 55.9 °F 75% 30.08 in 10.0 mi WNW 9.2 mph - N/A   Overcast
9:14 AM 66.9 °F - 55.9 °F 68% 30.19 in 10.0 mi WSW 6.9 mph - N/A   Overcast
9:28 AM 69.1 °F - 55.9 °F 63% 30.19 in 10.0 mi West 6.9 mph - N/A   Scattered Clouds
9:53 AM 72.0 °F - 60.1 °F 66% 30.08 in 10.0 mi Variable 4.6 mph - N/A   Clear
10:24 AM 72.0 °F - 61.0 °F 68% 30.20 in 10.0 mi Variable 3.5 mph - N/A   Mostly Cloudy
10:53 AM 73.9 °F - 63.0 °F 68% 30.09 in 10.0 mi NNE 5.8 mph - N/A   Mostly Cloudy
11:53 AM 72.0 °F - 63.0 °F 73% 30.10 in 10.0 mi ENE 15.0 mph - N/A   Mostly Cloudy
12:53 PM 75.0 °F - 61.0 °F 62% 30.09 in 10.0 mi Variable 6.9 mph - N/A   Scattered Clouds
1:53 PM 80.1 °F 80.9 °F 60.1 °F 50% 30.07 in 10.0 mi Variable 4.6 mph - N/A   Partly Cloudy
2:53 PM 80.1 °F 80.9 °F 60.1 °F 50% 30.06 in 10.0 mi ENE 10.4 mph - N/A   Mostly Cloudy
3:53 PM 81.0 °F 81.3 °F 59.0 °F 47% 30.04 in 10.0 mi East 9.2 mph - N/A   Partly Cloudy
4:53 PM 81.0 °F 81.3 °F 59.0 °F 47% 30.04 in 10.0 mi ENE 13.8 mph - N/A   Clear
5:53 PM 79.0 °F - 57.0 °F 47% 30.05 in 10.0 mi ENE 15.0 mph - N/A   Clear
7:53 PM 69.1 °F - 60.1 °F 73% 30.07 in 10.0 mi ENE 5.8 mph - N/A   Clear
8:53 PM 66.0 °F - 57.9 °F 75% 30.11 in 10.0 mi East 6.9 mph - N/A   Clear
9:53 PM 64.0 °F - 60.1 °F 87% 30.12 in 10.0 mi ESE 6.9 mph - N/A   Clear
10:53 PM 62.1 °F - 60.1 °F 93% 30.14 in 10.0 mi ESE 5.8 mph - N/A   Clear
11:53 PM 61.0 °F - 59.0 °F 93% 30.16 in 10.0 mi ESE 6.9 mph - N/A   Clear